Zurück zum Katalog

NOAA 17 DEB

AktivSSO
NORAD 48706·DEBRIS·🇺🇸 United States

Gestartet Jun 24, 2002 von Vandenberg Space Force Base

Loading…

Nächste Überflüge (nächste 24 Stunden)

TLE

AktuellSource: Space-Track

Epoche: Sep 14, 2026, 02:55 UTC

1 48706U 02032AP  26257.12163366  .00004112  00000-0  16212-2 0  9994
2 48706  98.9301 212.8353 0093477 245.8799 113.2583 14.27312001279906

Verfolge NOAA 17 DEB in Echtzeit mit AllMySat

Download on the App Store